User: anonymous
Location: Hancock Field Station
(44.9202°N, 120.4259°W)
Time: 05:17:57
(UTC-07:00)
Language:

Nadezhda 4 Rocket - Orbit

View from above orbital plane
View from above orbital plane
View from above satellite
View from above satellite

Ground track
Ground track

The orbit data is extracted from the following two-line orbital elements,

1 23180U 94041B   14110.82652395  .00000057  00000-0  41497-4 0  4210
2 23180 082.9463 069.2303 0028316 215.7091 205.6812 13.77825810994071
Epoch (UTC): 20 April 2014 19:50:11
Eccentricity: 0.0028316
inclination: 82.9463°
perigee height: 951 km
apogee height: 992 km
right ascension of ascending node: 69.2303°
argument of perigee: 215.7091°
revolutions per day: 13.77825810
mean anomaly at epoch: 205.6812°
orbit number at epoch: 99407

The dashed part of the orbit path shows where the satellite is in the earth's shadow,  

DLR